Location: Arthurs Seat
(13.1500°N, 59.6000°W)
Time: 09:36:20
(UTC+00:00)

Cosmos 2082 Rocket - Pass Details

Date: 25 August 2019
Orbit: 832 x 855 km, 71.0° (Epoch: 22 October)

Event Time Altitude Azimuth Distance (km) Brightness Sun altitude
Rises 22:40:38 0° 155° (SSE) 3,364 5.0 -7.2°
Reaches altitude 10° 22:44:36 10° 127° (SE) 2,433 4.0 -8.1°
Maximum altitude 22:46:55 13° 102° (ESE) 2,251 3.7 -8.7°
Drops below altitude 10° 22:49:13 10° 77° (ENE) 2,438 4.1 -9.2°
Sets 22:53:11 0° 50° (NE) 3,377 5.0 -10.2°
